EW7574 Weather Reports


time (UTC)temp
C
wind
direction
speed
KPH
gust
KPH
rain 1hr
cm
rain 24hr
cm
rain mn
cm
humidity
%
barometer
mb
20260507120003 9 355 12.9 30.6 0.05 1.68 0.84 89 1006.6
20260507114603 9 355 12.9 24.1 0.03 1.65 0.81 89 1006.7
20260507113059 9 5 12.9 22.5 0.05 1.65 0.81 89 1005.8
20260507111557 9 355 16.1 35.4 0.08 1.65 0.81 90 1005.9
20260507110057 9 332 14.5 33.8 0.10 1.63 0.79 90 1006.0
20260507104554 9 306 16.1 30.6 0.53 1.63 0.79 91 1005.8
20260507103049 9 322 14.5 27.4 0.56 1.60 0.76 91 1005.6
20260507101601 10 335 16.1 27.4 0.56 1.57 0.71 91 1005.4
20260507100045 10 294 19.3 27.4 0.66 1.52 0.69 91 1004.9
20260507094553 10 336 14.5 27.4 0.23 1.09 0.25 91 1005.4
20260507093037 11 5 16.1 27.4 0.15 1.02 0.18 91 1004.8
20260507091551 12 301 6.4 25.7 0.18 1.02 0.18 92 1005.0
20260507090033 12 300 6.4 12.9 0.03 0.86 0.03 92 1005.5
20260507084530 12 245 3.2 11.3 0.03 0.86 0.03 91 1004.9
20260507083030 12 228 3.2 9.7 0.03 0.86 0.03 91 1004.1
20260507081540 12 189 1.6 8.0 0.00 0.84 0.00 91 1004.0
20260507080025 12 211 1.6 4.8 0.00 0.84 0.00 91 1004.2
20260507074527 12 196 3.2 6.4 0.00 0.84 0.00 91 1004.3
20260507073022 12 220 3.2 9.7 0.00 0.84 0.00 91 1004.5
20260507071521 12 234 4.8 9.7 0.00 0.84 0.00 91 1005.0
20260507070020 12 263 1.6 8.0 0.00 0.84 0.00 91 1004.5
20260507064520 12 263 1.6 12.9 0.00 0.84 0.00 91 1004.5
20260507063018 12 211 4.8 14.5 0.00 0.84 0.00 91 1004.7
20260507061529 12 292 4.8 19.3 0.00 0.84 0.00 91 1004.6
20260507060026 13 234 8.0 19.3 0.00 0.84 0.00 91 1004.7
20260507054513 13 255 4.8 17.7 0.00 0.84 0.00 91 1004.9
20260507053111 13 213 6.4 19.3 0.00 0.84 0.00 91 1005.3
20260507051510 13 219 8.0 24.1 0.00 0.84 0.00 91 1005.4
20260507050016 13 215 8.0 17.7 0.00 0.84 0.00 91 1005.4
20260507044511 13 197 6.4 17.7 0.00 0.84 0.00 91 1005.5
20260507043004 13 243 8.0 22.5 0.00 0.84 0.00 91 1005.8
20260507041502 13 318 9.7 19.3 0.00 0.84 0.00 91 1006.0
20260507040100 13 243 11.3 30.6 0.00 0.84 0.00 91 1005.7
20260507034604 13 267 11.3 33.8 0.00 0.84 0.84 91 1006.0
20260507033102 13 222 14.5 27.4 0.00 0.84 0.84 91 1005.6
20260507031558 13 221 8.0 27.4 0.00 0.84 0.84 91 1005.6
20260507030106 13 213 11.3 24.1 0.00 0.84 0.84 91 1005.8
20260507024558 13 231 9.7 33.8 0.00 0.84 0.84 91 1006.3
20260507023052 13 229 12.9 29.0 0.00 0.84 0.84 91 1006.4
20260507021607 13 178 11.3 32.2 0.00 0.84 0.84 91 1006.7
20260507020053 13 186 11.3 33.8 0.03 0.84 0.84 90 1006.7
20260507014607 13 190 11.3 27.4 0.13 0.84 0.84 90 1007.1
20260507013049 13 227 11.3 27.4 0.28 0.84 0.84 90 1007.0
20260507011544 13 211 11.3 33.8 0.41 0.84 0.84 90 1007.1
20260507010050 13 229 11.3 24.1 0.43 0.81 0.81 90 1007.2
20260507004543 13 230 9.7 30.6 0.33 0.69 0.69 90 1007.2
20260507003041 13 198 11.3 40.2 0.30 0.56 0.56 89 1007.1
20260507001541 13 184 16.1 35.4 0.33 0.43 0.43 89 1007.1
20260507000043 13 197 12.9 35.4 0.38 0.38 0.38 89 1007.1
20260506234536 13 205 12.9 33.8 0.36 0.36 0.36 88 1007.3
20260506233036 13 180 12.9 35.4 0.25 0.25 0.25 87 1007.5
20260506231535 14 189 16.1 35.4 0.10 0.10 0.10 85 1007.6
20260506230036 15 226 16.1 37.0 0.00 0.00 0.00 81 1007.5
20260506224536 15 196 14.5 35.4 0.00 0.00 0.00 80 1007.6
20260506223034 15 206 14.5 33.8 0.00 0.00 0.00 79 1007.7
20260506221532 15 226 16.1 40.2 0.00 0.00 0.00 79 1007.9
20260506220035 15 203 16.1 29.0 0.00 0.00 0.00 78 1008.0
20260506214529 16 229 11.3 37.0 0.00 0.00 0.00 78 1007.9
20260506213027 16 173 9.7 32.2 0.00 0.00 0.00 77 1008.1
20260506211526 16 213 16.1 45.1 0.00 0.00 0.00 77 1008.0
20260506210025 16 224 16.1 35.4 0.00 0.00 0.00 76 1008.2
20260506204526 16 209 14.5 29.0 0.00 0.00 0.00 76 1008.5
20260506203024 16 229 14.5 32.2 0.00 0.00 0.00 76 1008.7
20260506201537 16 203 9.7 30.6 0.00 0.00 0.00 75 1008.7
20260506200026 16 182 12.9 37.0 0.00 0.00 0.00 75 1008.8
20260506194520 16 206 8.0 38.6 0.00 0.00 0.00 75 1009.0
20260506193022 16 220 17.7 38.6 0.00 0.00 0.00 74 1008.9
20260506191519 17 199 14.5 37.0 0.00 0.00 0.00 74 1009.2
20260506190017 17 212 8.0 35.4 0.00 0.00 0.00 73 1009.3
20260506184516 17 223 19.3 40.2 0.00 0.00 0.00 72 1009.9
20260506183014 18 256 11.3 41.8 0.00 0.00 0.00 70 1010.0
20260506181512 18 245 12.9 29.0 0.00 0.00 0.00 69 1010.4
20260506180011 18 192 19.3 40.2 0.00 0.00 0.00 70 1010.3
20260506174509 17 195 22.5 41.8 0.00 0.00 0.00 73 1010.2
20260506173007 17 246 9.7 27.4 0.00 0.00 0.00 73 1010.5
20260506171507 17 226 8.0 32.2 0.00 0.00 0.00 74 1010.7
20260506170005 17 250 12.9 29.0 0.00 0.00 0.00 73 1011.1
20260506164506 18 274 17.7 37.0 0.00 0.00 0.00 70 1011.1
20260506163005 17 196 17.7 30.6 0.00 0.00 0.00 71 1011.1
20260506161604 18 209 17.7 41.8 0.00 0.00 0.00 70 1011.6
20260506160059 18 175 9.7 35.4 0.00 0.00 0.00 70 1011.7
20260506154602 18 184 12.9 37.0 0.00 0.00 0.00 71 1011.8
20260506153052 17 233 9.7 33.8 0.00 0.00 0.00 73 1011.9
20260506151552 17 273 17.7 46.7 0.00 0.00 0.00 73 1011.7
20260506150052 17 232 14.5 29.0 0.00 0.00 0.00 73 1011.7
20260506144550 17 217 14.5 40.2 0.00 0.00 0.00 73 1011.7
20260506143047 17 206 16.1 41.8 0.00 0.00 0.00 73 1011.9
20260506141552 17 186 11.3 38.6 0.00 0.00 0.00 73 1012.2
20260506140052 17 189 9.7 38.6 0.00 0.00 0.00 75 1012.1
20260506134539 16 217 14.5 35.4 0.00 0.00 0.00 76 1011.9
20260506133037 16 196 12.9 29.0 0.00 0.00 0.00 76 1011.9
20260506131535 16 240 17.7 35.4 0.00 0.00 0.00 77 1012.0
20260506130033 15 230 12.9 30.6 0.00 0.00 0.00 78 1012.0
20260506124526 15 208 11.3 27.4 0.00 0.00 0.00 79 1011.9
20260506123023 15 207 11.3 25.7 0.00 0.00 0.00 81 1012.2
20260506121520 14 229 14.5 27.4 0.00 0.00 0.00 81 1012.3